STARLINK-1840 (47131 NORAD) Tracking and Keplerian Element Data
This shows tracking and keplerian element data for the satellite.
Feedback or suggestion? Click here.
Element | Value |
Catalog | 47131 |
Name | STARLINK-1840 |
Epoch Orbit | 1593 |
Epoch Day | 60.91667824 |
Epoch Year | 2021 |
RAAN | 241.2239 |
Inclination | 53.0505 |
Eccentricity | 0.0004465 |
Argument of Perigee | 273.9319 |
Mean Anonmoly | 60.1248 |
Mean Motion | 15.32948877 |
Decay Rate | -0.00526554 |
L1 | 1 47131U 20088K 21060.91667824 -.00526554 00000-0 -17465-1 0 9999 |
L2 | 2 47131 53.0505 241.2239 0004465 273.9319 60.1248 15.32948877 15935 |
Live tracking and technical data element details for STARLINK-1840 (NORAD 47131). STARLINK-1840 can be tracked NOW for your location showing map with azimuth and elevation plus other details from your city location.
Track the satellite on the map from your city or location and see movement details for azimuth, elevation, latitude, longitude, range, height, and movement on the map or in text.
IsCatalogInMostPopularTable: catalog: 47131, numindb: 26
Update: records affected: 1
GetName: 47131 STARLINK-1840
Hit Count: updated at: Tue, 02 Mar 2021 13:42:33 GMT